| time (UTC) | temp F | wind direction | speed MPH | gust MPH | rain 1hr in | rain 24hr in | rain mn in | humidity % | barometer mb |
| 20260906172003 | 66 | 53 | 3.0 | 11.0 | 0.00 | 0.05 | 0.01 | 66 | 1017.9 |
| 20260906171003 | 66 | 40 | 2.0 | 11.0 | 0.00 | 0.05 | 0.01 | 67 | 1017.9 |
| 20260906170003 | 65 | 84 | 3.0 | 10.0 | 0.00 | 0.05 | 0.01 | 67 | 1017.9 |
| 20260906165003 | 65 | 50 | 4.0 | 10.0 | 0.00 | 0.05 | 0.01 | 68 | 1017.8 |
| 20260906164024 | 64 | 84 | 2.0 | 8.0 | 0.00 | 0.05 | 0.01 | 67 | 1017.8 |
| 20260906163003 | 65 | 64 | 3.0 | 9.0 | 0.00 | 0.05 | 0.01 | 67 | 1018.0 |
| 20260906162024 | 65 | 76 | 3.0 | 7.0 | 0.00 | 0.05 | 0.01 | 68 | 1017.9 |
| 20260906161003 | 63 | 65 | 3.0 | 9.0 | 0.00 | 0.05 | 0.01 | 72 | 1017.9 |
| 20260906160003 | 63 | 63 | 2.0 | 7.0 | 0.00 | 0.05 | 0.01 | 72 | 1018.0 |
| 20260906155003 | 61 | 63 | 1.0 | 4.0 | 0.00 | 0.05 | 0.01 | 76 | 1018.2 |
| 20260906154024 | 61 | 58 | 2.0 | 6.0 | 0.00 | 0.05 | 0.01 | 75 | 1018.1 |
| 20260906153024 | 62 | 48 | 2.0 | 8.0 | 0.00 | 0.05 | 0.01 | 75 | 1018.2 |
| 20260906152024 | 62 | 62 | 2.0 | 8.0 | 0.00 | 0.05 | 0.01 | 76 | 1018.1 |
| 20260906151003 | 61 | 70 | 2.0 | 8.0 | 0.00 | 0.05 | 0.01 | 78 | 1018.2 |
| 20260906150003 | 60 | 53 | 3.0 | 7.0 | 0.00 | 0.05 | 0.01 | 81 | 1018.3 |
| 20260906145003 | 60 | 68 | 2.0 | 6.0 | 0.00 | 0.05 | 0.01 | 81 | 1018.4 |
| 20260906144003 | 60 | 67 | 2.0 | 6.0 | 0.00 | 0.05 | 0.01 | 86 | 1018.2 |
| 20260906143003 | 58 | 81 | 1.0 | 5.0 | 0.00 | 0.05 | 0.01 | 88 | 1018.2 |
| 20260906142003 | 58 | 39 | 2.0 | 7.0 | 0.00 | 0.05 | 0.01 | 88 | 1018.2 |
| 20260906141003 | 57 | 65 | 1.0 | 7.0 | 0.00 | 0.05 | 0.01 | 91 | 1018.0 |
| 20260906140003 | 56 | 44 | 1.0 | 4.0 | 0.00 | 0.05 | 0.01 | 92 | 1018.1 |
| 20260906135024 | 56 | 52 | 2.0 | 7.0 | 0.00 | 0.05 | 0.01 | 92 | 1018.0 |
| 20260906134003 | 56 | 48 | 1.0 | 5.0 | 0.00 | 0.05 | 0.01 | 93 | 1018.0 |
| 20260906133003 | 55 | 24 | 0.0 | 3.0 | 0.00 | 0.05 | 0.01 | 94 | 1017.8 |
| 20260906132003 | 55 | 23 | 0.0 | 2.0 | 0.00 | 0.05 | 0.01 | 95 | 1017.9 |
| 20260906131024 | 55 | 18 | 1.0 | 4.0 | 0.00 | 0.05 | 0.01 | 96 | 1017.9 |
| 20260906130024 | 54 | 302 | 0.0 | 2.0 | 0.00 | 0.05 | 0.01 | 96 | 1017.9 |
| 20260906125003 | 54 | 207 | 0.0 | 3.0 | 0.00 | 0.05 | 0.01 | 96 | 1017.9 |
| 20260906124024 | 54 | 0 | 0.0 | 0.0 | 0.00 | 0.05 | 0.01 | 97 | 1017.8 |
| 20260906123024 | 53 | 110 | 0.0 | 1.0 | 0.00 | 0.05 | 0.01 | 97 | 1017.7 |
| 20260906122003 | 53 | 97 | 1.0 | 3.0 | 0.00 | 0.05 | 0.01 | 96 | 1017.6 |
| 20260906121003 | 52 | 0 | 0.0 | 0.0 | 0.00 | 0.05 | 0.01 | 96 | 1017.6 |
| 20260906120024 | 51 | 0 | 0.0 | 0.0 | 0.00 | 0.05 | 0.01 | 96 | 1017.3 |
| 20260906115003 | 50 | 0 | 0.0 | 0.0 | 0.00 | 0.05 | 0.01 | 96 | 1017.2 |
| 20260906114024 | 50 | 0 | 0.0 | 0.0 | 0.00 | 0.05 | 0.01 | 96 | 1017.0 |
| 20260906113003 | 50 | 0 | 0.0 | 0.0 | 0.00 | 0.05 | 0.01 | 96 | 1016.9 |
| 20260906112003 | 49 | 0 | 0.0 | 0.0 | 0.00 | 0.05 | 0.01 | 96 | 1016.8 |
| 20260906111003 | 49 | 0 | 0.0 | 0.0 | 0.00 | 0.05 | 0.01 | 95 | 1016.8 |
| 20260906110003 | 49 | 0 | 0.0 | 0.0 | 0.00 | 0.05 | 0.01 | 95 | 1016.6 |
| 20260906105003 | 49 | 0 | 0.0 | 0.0 | 0.00 | 0.05 | 0.01 | 95 | 1016.5 |
| 20260906104003 | 49 | 0 | 0.0 | 0.0 | 0.00 | 0.05 | 0.01 | 95 | 1016.3 |
| 20260906103003 | 50 | 0 | 0.0 | 0.0 | 0.00 | 0.05 | 0.01 | 95 | 1016.2 |
| 20260906102003 | 50 | 0 | 0.0 | 0.0 | 0.00 | 0.05 | 0.01 | 95 | 1016.1 |
| 20260906101003 | 50 | 0 | 0.0 | 0.0 | 0.00 | 0.05 | 0.01 | 95 | 1016.0 |
| 20260906100024 | 51 | 0 | 0.0 | 0.0 | 0.00 | 0.05 | 0.01 | 95 | 1016.0 |
| 20260906095003 | 51 | 0 | 0.0 | 0.0 | 0.00 | 0.05 | 0.01 | 96 | 1016.1 |
| 20260906094003 | 50 | 0 | 0.0 | 0.0 | 0.00 | 0.05 | 0.01 | 96 | 1015.9 |
| 20260906093003 | 50 | 0 | 0.0 | 0.0 | 0.00 | 0.05 | 0.01 | 96 | 1015.9 |
| 20260906092003 | 50 | 0 | 0.0 | 0.0 | 0.00 | 0.05 | 0.01 | 95 | 1015.8 |
| 20260906091003 | 50 | 0 | 0.0 | 0.0 | 0.00 | 0.05 | 0.01 | 95 | 1015.7 |
| 20260906090003 | 50 | 0 | 0.0 | 0.0 | 0.00 | 0.05 | 0.01 | 95 | 1015.6 |
| 20260906085003 | 50 | 0 | 0.0 | 0.0 | 0.00 | 0.05 | 0.01 | 95 | 1015.6 |
| 20260906084003 | 50 | 0 | 0.0 | 0.0 | 0.00 | 0.05 | 0.01 | 95 | 1015.6 |
| 20260906083003 | 51 | 0 | 0.0 | 0.0 | 0.00 | 0.05 | 0.01 | 95 | 1015.4 |
| 20260906082003 | 51 | 0 | 0.0 | 0.0 | 0.00 | 0.05 | 0.01 | 95 | 1015.4 |
| 20260906081003 | 52 | 0 | 0.0 | 0.0 | 0.00 | 0.05 | 0.01 | 95 | 1015.2 |
| 20260906080003 | 52 | 0 | 0.0 | 0.0 | 0.00 | 0.05 | 0.01 | 95 | 1015.1 |
| 20260906075003 | 52 | 0 | 0.0 | 0.0 | 0.00 | 0.05 | 0.01 | 95 | 1015.2 |
| 20260906074003 | 52 | 0 | 0.0 | 0.0 | 0.00 | 0.05 | 0.01 | 95 | 1015.2 |
| 20260906073003 | 52 | 0 | 0.0 | 0.0 | 0.00 | 0.05 | 0.01 | 95 | 1015.2 |
| 20260906072003 | 52 | 0 | 0.0 | 0.0 | 0.00 | 0.05 | 0.01 | 94 | 1015.2 |
| 20260906071003 | 52 | 0 | 0.0 | 0.0 | 0.01 | 0.05 | 0.01 | 94 | 1015.1 |
| 20260906070004 | 52 | 0 | 0.0 | 0.0 | 0.01 | 0.05 | 0.01 | 94 | 1014.9 |
| 20260906065003 | 52 | 0 | 0.0 | 0.0 | 0.01 | 0.05 | 0.01 | 94 | 1014.8 |
| 20260906064003 | 53 | 0 | 0.0 | 0.0 | 0.01 | 0.05 | 0.01 | 94 | 1014.9 |
| 20260906063003 | 53 | 0 | 0.0 | 0.0 | 0.01 | 0.05 | 0.01 | 94 | 1014.7 |
| 20260906062003 | 54 | 0 | 0.0 | 0.0 | 0.01 | 0.05 | 0.01 | 94 | 1014.8 |
| 20260906061003 | 54 | 0 | 0.0 | 0.0 | 0.00 | 0.04 | 0.00 | 94 | 1014.8 |
| 20260906060003 | 54 | 0 | 0.0 | 0.0 | 0.00 | 0.04 | 0.00 | 94 | 1014.8 |
| 20260906055003 | 55 | 0 | 0.0 | 0.0 | 0.00 | 0.04 | 0.00 | 94 | 1014.8 |
| 20260906054024 | 55 | 0 | 0.0 | 0.0 | 0.00 | 0.04 | 0.00 | 93 | 1014.7 |
| 20260906053003 | 56 | 0 | 0.0 | 0.0 | 0.00 | 0.04 | 0.00 | 93 | 1014.7 |
| 20260906052003 | 56 | 0 | 0.0 | 0.0 | 0.00 | 0.04 | 0.00 | 93 | 1014.8 |
| 20260906051003 | 57 | 0 | 0.0 | 0.0 | 0.00 | 0.04 | 0.00 | 93 | 1014.7 |
| 20260906050003 | 57 | 0 | 0.0 | 0.0 | 0.00 | 0.04 | 0.00 | 94 | 1014.7 |
| 20260906045024 | 58 | 0 | 0.0 | 0.0 | 0.00 | 0.04 | 0.00 | 93 | 1014.7 |
| 20260906044003 | 58 | 0 | 0.0 | 0.0 | 0.00 | 0.04 | 0.00 | 93 | 1014.7 |
| 20260906043003 | 58 | 0 | 0.0 | 0.0 | 0.00 | 0.04 | 0.00 | 94 | 1014.7 |
| 20260906042024 | 58 | 0 | 0.0 | 0.0 | 0.00 | 0.04 | 0.00 | 93 | 1014.6 |
| 20260906041003 | 58 | 0 | 0.0 | 0.0 | 0.00 | 0.04 | 0.00 | 93 | 1014.5 |
| 20260906040003 | 59 | 0 | 0.0 | 0.0 | 0.00 | 0.04 | 0.00 | 93 | 1014.6 |
| 20260906035003 | 59 | 0 | 0.0 | 0.0 | 0.00 | 0.04 | 0.04 | 93 | 1014.6 |
| 20260906034003 | 59 | 0 | 0.0 | 0.0 | 0.00 | 0.04 | 0.04 | 93 | 1014.6 |
| 20260906033003 | 59 | 0 | 0.0 | 0.0 | 0.00 | 0.04 | 0.04 | 93 | 1014.5 |
| 20260906032003 | 59 | 0 | 0.0 | 0.0 | 0.00 | 0.04 | 0.04 | 93 | 1014.6 |
| 20260906031003 | 59 | 0 | 0.0 | 0.0 | 0.00 | 0.04 | 0.04 | 93 | 1014.5 |
| 20260906030003 | 59 | 0 | 0.0 | 0.0 | 0.00 | 0.04 | 0.04 | 93 | 1014.7 |
| 20260906025024 | 59 | 73 | 0.0 | 1.0 | 0.00 | 0.04 | 0.04 | 93 | 1014.7 |
| 20260906024003 | 59 | 73 | 0.0 | 2.0 | 0.00 | 0.04 | 0.04 | 93 | 1014.5 |
| 20260906023003 | 59 | 73 | 0.0 | 2.0 | 0.00 | 0.04 | 0.04 | 93 | 1014.4 |
| 20260906022003 | 59 | 80 | 1.0 | 3.0 | 0.00 | 0.04 | 0.04 | 93 | 1014.6 |
| 20260906021003 | 59 | 43 | 1.0 | 4.0 | 0.00 | 0.04 | 0.04 | 93 | 1014.5 |
| 20260906020003 | 59 | 0 | 0.0 | 0.0 | 0.00 | 0.04 | 0.04 | 93 | 1014.5 |
| 20260906015003 | 59 | 40 | 1.0 | 4.0 | 0.00 | 0.04 | 0.04 | 93 | 1014.4 |
| 20260906014003 | 59 | 64 | 1.0 | 3.0 | 0.00 | 0.04 | 0.04 | 92 | 1014.4 |
| 20260906013003 | 59 | 99 | 0.0 | 3.0 | 0.00 | 0.04 | 0.04 | 92 | 1014.3 |
| 20260906012003 | 60 | 109 | 0.0 | 1.0 | 0.00 | 0.04 | 0.04 | 92 | 1014.4 |
| 20260906011024 | 60 | 0 | 0.0 | 0.0 | 0.00 | 0.04 | 0.04 | 92 | 1014.5 |
| 20260906010003 | 60 | 109 | 0.0 | 1.0 | 0.00 | 0.04 | 0.04 | 92 | 1014.6 |
| 20260906005003 | 60 | 109 | 0.0 | 1.0 | 0.00 | 0.04 | 0.04 | 92 | 1014.6 |
| 20260906004003 | 60 | 109 | 0.0 | 1.0 | 0.00 | 0.04 | 0.04 | 92 | 1014.3 |
| 20260906003024 | 61 | 0 | 0.0 | 0.0 | 0.00 | 0.04 | 0.04 | 91 | 1014.4 |
| 20260906002003 | 61 | 109 | 0.0 | 1.0 | 0.00 | 0.04 | 0.04 | 91 | 1014.2 |
| 20260906001003 | 61 | 0 | 0.0 | 0.0 | 0.00 | 0.04 | 0.04 | 89 | 1014.3 |
| 20260906000024 | 61 | 109 | 0.0 | 1.0 | 0.00 | 0.04 | 0.04 | 89 | 1014.4 |
| 20260905235003 | 62 | 82 | 1.0 | 3.0 | 0.00 | 0.04 | 0.04 | 88 | 1014.3 |
| 20260905234003 | 62 | 37 | 1.0 | 9.0 | 0.00 | 0.04 | 0.04 | 86 | 1014.2 |
| 20260905233003 | 63 | 49 | 1.0 | 4.0 | 0.00 | 0.04 | 0.04 | 85 | 1014.1 |
| 20260905232024 | 63 | 36 | 0.0 | 3.0 | 0.00 | 0.04 | 0.04 | 85 | 1014.0 |
| 20260905231003 | 63 | 36 | 0.0 | 3.0 | 0.00 | 0.04 | 0.04 | 84 | 1013.9 |
| 20260905230024 | 63 | 46 | 1.0 | 5.0 | 0.00 | 0.04 | 0.04 | 83 | 1014.0 |
| 20260905225003 | 63 | 64 | 1.0 | 2.0 | 0.00 | 0.04 | 0.04 | 84 | 1013.9 |
| 20260905224003 | 64 | 39 | 1.0 | 5.0 | 0.00 | 0.04 | 0.04 | 83 | 1013.9 |
| 20260905223003 | 64 | 44 | 0.0 | 2.0 | 0.00 | 0.04 | 0.04 | 85 | 1013.7 |
| 20260905222003 | 64 | 49 | 1.0 | 3.0 | 0.00 | 0.04 | 0.04 | 84 | 1013.5 |
| 20260905221003 | 64 | 66 | 0.0 | 3.0 | 0.00 | 0.04 | 0.04 | 84 | 1013.6 |
| 20260905220003 | 65 | 86 | 1.0 | 4.0 | 0.00 | 0.04 | 0.04 | 84 | 1013.5 |
| 20260905215003 | 65 | 99 | 1.0 | 5.0 | 0.00 | 0.04 | 0.04 | 82 | 1013.4 |
| 20260905214003 | 65 | 86 | 1.0 | 4.0 | 0.00 | 0.04 | 0.04 | 82 | 1013.3 |
| 20260905213003 | 65 | 60 | 1.0 | 6.0 | 0.00 | 0.04 | 0.04 | 81 | 1013.2 |
| 20260905212003 | 65 | 55 | 0.0 | 3.0 | 0.00 | 0.04 | 0.04 | 82 | 1013.2 |
| 20260905211003 | 65 | 79 | 1.0 | 5.0 | 0.00 | 0.04 | 0.04 | 81 | 1013.2 |
| 20260905210024 | 65 | 103 | 0.0 | 2.0 | 0.00 | 0.04 | 0.04 | 84 | 1013.4 |
| 20260905205003 | 65 | 71 | 1.0 | 8.0 | 0.00 | 0.04 | 0.04 | 84 | 1013.2 |
| 20260905204003 | 65 | 94 | 1.0 | 2.0 | 0.00 | 0.04 | 0.04 | 83 | 1013.1 |
| 20260905203024 | 65 | 91 | 1.0 | 3.0 | 0.00 | 0.04 | 0.04 | 84 | 1013.1 |
| 20260905202003 | 65 | 37 | 2.0 | 8.0 | 0.00 | 0.04 | 0.04 | 82 | 1013.0 |
| 20260905201003 | 66 | 48 | 1.0 | 4.0 | 0.00 | 0.04 | 0.04 | 82 | 1013.0 |
| 20260905200024 | 66 | 42 | 1.0 | 5.0 | 0.00 | 0.04 | 0.04 | 83 | 1012.9 |
| 20260905195004 | 65 | 74 | 1.0 | 6.0 | 0.00 | 0.04 | 0.04 | 84 | 1012.9 |
| 20260905194003 | 65 | 79 | 2.0 | 8.0 | 0.00 | 0.04 | 0.04 | 83 | 1013.0 |
| 20260905193003 | 66 | 94 | 1.0 | 2.0 | 0.04 | 0.04 | 0.04 | 83 | 1012.9 |
| 20260905192003 | 66 | 94 | 0.0 | 1.0 | 0.04 | 0.04 | 0.04 | 89 | 1012.9 |
| 20260905191024 | 65 | 71 | 1.0 | 4.0 | 0.04 | 0.04 | 0.04 | 84 | 1012.9 |
| 20260905190003 | 66 | 146 | 0.0 | 3.0 | 0.04 | 0.04 | 0.04 | 84 | 1012.8 |
| 20260905185003 | 66 | 113 | 0.0 | 3.0 | 0.04 | 0.04 | 0.04 | 86 | 1012.9 |
| 20260905184003 | 67 | 57 | 0.0 | 2.0 | 0.04 | 0.04 | 0.04 | 82 | 1012.8 |
| 20260905183024 | 68 | 193 | 2.0 | 4.0 | 0.00 | 0.00 | 0.00 | 75 | 1012.7 |
| 20260905182003 | 67 | 91 | 1.0 | 4.0 | 0.00 | 0.00 | 0.00 | 78 | 1012.8 |
| 20260905181003 | 66 | 141 | 0.0 | 2.0 | 0.00 | 0.00 | 0.00 | 80 | 1012.7 |
| 20260905180003 | 66 | 98 | 1.0 | 6.0 | 0.00 | 0.00 | 0.00 | 78 | 1012.7 |
| 20260905175003 | 67 | 69 | 1.0 | 4.0 | 0.00 | 0.00 | 0.00 | 78 | 1012.9 |
| 20260905174024 | 67 | 77 | 1.0 | 3.0 | 0.00 | 0.00 | 0.00 | 77 | 1012.9 |
| 20260905173003 | 67 | 85 | 1.0 | 3.0 | 0.00 | 0.00 | 0.00 | 77 | 1012.8 |